Location: Newark
(59.4564°N, 26.6917°E)
Time: 00:48:37
(UTC+00:00)

SR - Pass Details

Date: 27 November 2019
Orbit: 573 x 882 km, 66.7° (Epoch: 13 December)

Event Time Altitude Azimuth Distance (km) Brightness Sun altitude
Rises 15:45:55 0° 288° (WNW) 3,423 ? -16.3°
Reaches altitude 10° 15:48:30 10° 296° (WNW) 2,514 ? -16.6°
Maximum altitude 15:54:06 43° 7° (N) 1,231 ? -17.3°
Enters shadow 15:56:47 27° 59° (ENE) 1,630 ? -17.6°
Drops below altitude 10° 15:59:45 10° 78° (ENE) 2,544 - -18.0°
Sets 16:02:23 0° 85° (E) 3,468 - -18.3°
